Bodensee (Kressbronn): 13,3°C  -  Teich der Wetterzentrale Bad Schussenried: 14,7°C  
24.10.2020Höhe
ü. NN
ZeitTemperatur (°C)Nieder-
schlag
Luft-
feuchte
Luft-
druck
Wind
StationaktuellMinimumMaximumaktuellMaximum
Aldingen654 m00:0110,810,8 (23:52)10,8 (14:04)0,0 l/m²93%1016,93,7 km/h (1 Bft) S-SW14,8 km/h (3 Bft) S (01:04)
Allmendingen541 m00:0012,412,4 (06:30)12,4 (14:55)0,0 l/m²86%1015,19,7 km/h (2 Bft) SW17,7 km/h (3 Bft) W-SW (18:40)
Amstetten-Reutti663 m00:0011,611,6 (08:25)11,6 (15:10)0,0 l/m²96%1015,09,7 km/h (2 Bft) SW22,5 km/h (4 Bft) SW (20:15)
Amtzell-Grenis677 m00:0010,910,9 (00:00)10,9 (00:00)0,0 l/m²76%1017,76,4 km/h (2 Bft) W-SW6,4 km/h (2 Bft) W-SW (00:00)
Bachhagel489 m00:0012,4- (-)12,4 (01:00)0,0 l/m²96%1018,917,6 km/h (3 Bft) SW9,7 km/h (2 Bft) N-NO (01:00)
Bad Krozingen233 m00:0013,613,6 (08:25)13,6 (13:30)0,0 l/m²94%1017,312,1 km/h (3 Bft) S-SW25,9 km/h (4 Bft) S-SW (16:20)
Bad Krozingen-Tunsel229 m00:0013,613,6 (08:20)13,6 (01:35)0,0 l/m²92%1016,617,2 km/h (3 Bft) N-NO24,9 km/h (4 Bft) NW (17:05)
Bad Saulgau595 m00:0011,411,4 (07:30)11,4 (11:55)0,0 l/m²93%1014,916,1 km/h (3 Bft) W-SW22,5 km/h (4 Bft) SW (21:45)
Bad Saulgau, Mannsgrab588 m00:0111,6- (-)11,6 (01:00)0,0 l/m²89%1017,613,0 km/h (3 Bft) S-SW13,0 km/h (3 Bft) S-SW (00:00)
Bad Saulgau, SFZ Kälberweide594 m00:0011,7- (-)11,7 (01:00)0,0 l/m²92%1017,116,2 km/h (3 Bft) W9,7 km/h (2 Bft) N-NO (01:00)
Bad Schussenried572 m00:0011,611,6 (00:00)11,6 (00:00)0,0 l/m²98%1014,412,9 km/h (3 Bft) S-SW12,9 km/h (3 Bft) S-SW (00:00)
Bergatreute615 m00:0011,411,5 (00:00)11,5 (00:00)0,0 l/m²98%1014,812,9 km/h (3 Bft) S-SW12,9 km/h (3 Bft) SW (00:00)
Biberach (Riss), Realschule553 m00:0012,112,1 (00:00)12,1 (00:00)0,0 l/m²95%1016,714,5 km/h (3 Bft) W14,5 km/h (3 Bft) W-SW (00:00)
Burgrieden523 m00:0011,811,8 (00:00)11,8 (00:00)0,0 l/m²92%1015,40,0 km/h (0 Bft) SW0,0 km/h (0 Bft) S (00:00)
Ebersbach579 m00:0012,012,1 (00:00)12,1 (00:00)0,0 l/m²94%1016,917,7 km/h (3 Bft) S-SW17,7 km/h (3 Bft) SW (00:00)
Ebersbach-Boos605 m00:0011,311,4 (00:00)11,4 (00:00)0,0 l/m²97%1016,60,0 km/h (0 Bft) S0,0 km/h (0 Bft) W-SW (00:00)
Ebersbach-Menzenweiler661 m00:0011,211,3 (00:00)11,3 (00:00)0,0 l/m²97%1016,624,1 km/h (4 Bft) SW24,1 km/h (4 Bft) SW (00:00)
Ehingen535 m00:0011,811,8 (00:00)11,8 (00:00)0,0 l/m²93%1015,05,6 km/h (2 Bft) O5,6 km/h (2 Bft) O (00:00)
Erlenmoos645 m00:0011,511,5 (00:00)11,5 (00:00)0,0 l/m²64%1015,822,5 km/h (4 Bft) S-SW22,5 km/h (4 Bft) S (00:00)
Ertingen569 m00:0011,411,4 (00:00)11,4 (00:00)0,0 l/m²97%1015,81,6 km/h (1 Bft) SW1,6 km/h (1 Bft) S-SW (00:00)
Günzburg443 m00:0013,113,1 (00:00)13,1 (00:00)0,0 l/m²91%1012,712,9 km/h (3 Bft) W12,9 km/h (3 Bft) W (00:00)
Höchsten802 m00:0010,110,2 (00:00)10,2 (00:00)0,0 l/m²94%1014,330,6 km/h (5 Bft) SW30,6 km/h (5 Bft) SW (00:00)
Horgenzell618 m00:0011,011,0 (00:00)11,0 (00:00)0,0 l/m²96%1015,519,3 km/h (3 Bft) SW19,3 km/h (3 Bft) S-SW (00:00)
Hoßkirch632 m00:0011,411,4 (00:00)11,4 (00:00)0,0 l/m²95%1015,117,7 km/h (3 Bft) S-SW17,7 km/h (3 Bft) S-SW (00:00)
Isny, Am Dreifingerbach695 m00:0011,811,9 (00:00)11,9 (00:00)0,0 l/m²97%1015,76,4 km/h (2 Bft) S6,4 km/h (2 Bft) S (00:00)
Isny, Weidachweg706 m00:0011,611,6 (00:00)11,6 (00:00)0,2 l/m²91%1018,53,2 km/h (1 Bft) N3,2 km/h (1 Bft) N (00:00)
Kappel-Grafenhausen163 m00:0013,9- (-)13,9 (01:00)0,0 l/m²95%1014,83,2 km/h (1 Bft) S1,4 km/h (1 Bft) S (00:00)
Kirchdorf an der Iller551 m00:0212,012,0 (00:00)12,0 (00:00)0,0 l/m²93%1017,128,8 km/h (5 Bft) W20,9 km/h (4 Bft) W-NW (00:00)
Kißlegg-Staibshof709 m00:0010,810,8 (00:00)10,8 (00:00)0,0 l/m²97%1016,617,7 km/h (3 Bft) SW17,7 km/h (3 Bft) SW (00:00)
Laupheim500 m00:0012,412,4 (00:00)12,4 (00:00)0,0 l/m²91%1014,916,1 km/h (3 Bft) W-SW16,1 km/h (3 Bft) W-SW (00:00)
Leutkirch-Heggelbach670 m00:0011,011,0 (00:00)11,0 (00:00)0,0 l/m²95%1015,414,5 km/h (3 Bft) S14,5 km/h (3 Bft) SW (00:00)
Lindau-Insel420 m00:0012,712,7 (08:50)12,7 (01:35)0,0 l/m²95%1016,50,0 km/h (0 Bft) S-SO20,9 km/h (4 Bft) SO (01:30)
Maierhöfen im Allgäu733 m00:0011,111,2 (00:00)11,2 (00:00)0,0 l/m²95%1016,74,8 km/h (1 Bft) W-SW4,8 km/h (1 Bft) W-SW (00:00)
Maselheim543 m00:0011,811,9 (00:00)11,9 (00:00)0,0 l/m²91%1016,014,5 km/h (3 Bft) S-SW14,5 km/h (3 Bft) W-SW (00:00)
Maselheim-Sulmingen548 m00:0012,012,0 (08:15)12,0 (12:15)0,0 l/m²94%1016,919,3 km/h (3 Bft) SW25,7 km/h (4 Bft) SW (22:30)
Mietingen-Baltringen528 m00:0012,312,3 (00:00)12,3 (00:00)0,0 l/m²90%1016,912,9 km/h (3 Bft) N12,9 km/h (3 Bft) W-SW (00:00)
Mindelheim-Apfeltrach620 m00:0111,511,5 (00:01)11,6 (00:00)0,0 l/m²89%1016,09,7 km/h (2 Bft) S-SW9,7 km/h (2 Bft) S-SW (00:01)
Mittelbiberach577 m00:0011,711,7 (00:00)11,7 (00:00)5,2 l/m²91%1017,28,0 km/h (2 Bft) SW8,0 km/h (2 Bft) SW (00:00)
Neukirch570 m00:0011,811,8 (07:55)11,8 (16:10)0,0 l/m²96%1016,94,8 km/h (1 Bft) SW22,5 km/h (4 Bft) W-SW (20:55)
Ochsenhausen, Birkenstraße583 m00:0012,112,1 (07:55)12,1 (13:10)0,0 l/m²90%1016,30,0 km/h (0 Bft) S-SW0,0 km/h (0 Bft) N (01:00)
Ochsenhausen, Unt. Wiesen575 m00:0012,112,1 (00:00)12,1 (00:00)0,0 l/m²93%1017,219,3 km/h (3 Bft) SW19,3 km/h (3 Bft) W-SW (00:00)
Opfenbach-Göritz561 m00:0011,4- (-)11,4 (01:00)0,0 l/m²94%1014,57,9 km/h (2 Bft) SO7,9 km/h (2 Bft) N-NO (01:00)
Ostrach619 m00:0012,112,1 (00:00)12,1 (00:00)0,0 l/m²94%1014,617,7 km/h (3 Bft) S-SW17,7 km/h (3 Bft) SW (00:00)
Ravensburg, Springerstraße441 m00:0012,812,8 (00:00)12,8 (00:00)0,0 l/m²86%1018,47,6 km/h (2 Bft) W-SW7,6 km/h (2 Bft) W-SW (00:00)
Reichenbach an der Fils343 m00:0012,913,0 (00:00)13,0 (00:00)0,0 l/m²89%1016,93,2 km/h (1 Bft) NW3,2 km/h (1 Bft) NW (00:00)
Reinstetten559 m00:0011,912,0 (00:00)12,0 (00:00)0,0 l/m²92%1016,124,1 km/h (4 Bft) S-SW24,1 km/h (4 Bft) SW (00:00)
Riedlingen530 m00:0011,811,8 (00:00)11,8 (00:00)0,0 l/m²95%1015,90,0 km/h (0 Bft) S-SW0,0 km/h (0 Bft) S-SW (00:00)
Rottweil-Hausen681 m00:0110,9- (-)10,9 (01:00)0,0 l/m²90%1016,79,7 km/h (2 Bft) SW3,2 km/h (1 Bft) N (01:00)
Schemmerhofen520 m00:0012,412,4 (00:00)12,4 (00:00)0,0 l/m²94%1015,120,9 km/h (4 Bft) S-SW20,9 km/h (4 Bft) SW (00:00)
Ummendorf547 m00:0012,012,1 (00:00)12,1 (00:00)0,0 l/m²83%1016,914,5 km/h (3 Bft) SW14,5 km/h (3 Bft) SW (00:00)
Ummendorf-Fischbach558 m00:0011,811,8 (00:00)11,8 (00:00)0,0 l/m²84%1017,011,3 km/h (2 Bft) SW11,3 km/h (2 Bft) S (00:00)
Waldburg707 m00:0010,810,8 (00:00)10,8 (00:00)0,0 l/m²97%1016,34,8 km/h (1 Bft) N4,8 km/h (1 Bft) N (00:00)
Warthausen-Birkenhard581 m00:0111,311,3 (00:00)11,3 (00:00)0,0 l/m²96%1016,122,3 km/h (4 Bft) W-SW15,5 km/h (3 Bft) S-SW (00:00)
Weingarten500 m00:0012,212,2 (00:00)12,2 (00:00)0,0 l/m²94%1016,312,9 km/h (3 Bft) S12,9 km/h (3 Bft) S-SO (00:00)
Winterlingen785 m00:0010,610,6 (00:00)10,6 (00:00)0,0 l/m²97%1013,73,2 km/h (1 Bft) SW3,2 km/h (1 Bft) SW (00:00)

niederschlagsdatenbank | info | login - erfassung

Sollten Sie Interesse haben, an der Niederschlagsdatenbank teilzunehmen, finden Sie > hier < weitere Informationen.
Datum: . . Kalender
Anmerkung:0,0 = nicht messbarer Niederschlag
 -  = kein Niederschlag
 k  = kumulierter Niederschlag

< 31.12.201502.01.2016 >


Niederschlagswerte vom 01.01.2016    -    derzeit 127 Stationen

Die Niederschlagswerte des gewählten Tages lassen sich durch Klicken auf das Datum sortieren.
Die Angaben sind in l/m².

Station29.12.30.12.31.12.01.01.02.01.03.01.04.01.Bemerkung 01.01.
Achstetten Hauptstraße-------
Aichstetten Ulmenstraße 7-------
Aichstetten-Nestbaum Nestbaum-------
Albbruck Furmisstr. 18---6,49,020,28,4
Regen + 4,6°
Regen
Allmendingen Querqueviller Ring 6--6,00,77,09,41,1
Regen
Amstetten-Reutti Gassenäcker 130,2-3,0-10,67,52,4
Aulendorf Steinenbacher Weg 33-0,46,3-13,86,00,5
Aulendorf-Blönried Heuweg 32--7,8-14,07,21,0
Bachhagel Meisenweg 3-------
Bad Buchau Hanfweiher 1-------
Bad Saulgau Walserweg--6,0-10,05,01,0
Bodennebel
Bad Saulgau-Hochberg Lampertsweiler Straße 120,4-6,7-11,04,51,5
Bad Saulgau-Steinbronnen Forchenhain 6-------
Bad Schussenried Konradstraße0,2-5,5-12,35,70,7
Bad Schussenried Lortzingstrasse--6,00,011,57,01,2
Nebelnässe
Bad Schussenried Klosterstraße--6,51,011,07,01,1
Regen
Bad Schussenried Theodor-Storm-Strasse--7,0-11,56,01,3
Bad Schussenried-Hopferbach Unterer Öschweg 16/1--6,0-13,07,52,2
Bad Schussenried-Lufthütte Hauptgasse 17-------
Bad Schussenried-Sattenbeuren Ortsstraße 7-------
Bad Schussenried-Schwaigfurt Schwaigfurt 2-1,06,01,012,87,01,8
Bad Waldsee-Haisterkirch Zur Spitzenkapelle 1--8,00,714,2--
+1/+4,5°C, oft bewölkt
Regen
Bad Waldsee-Haisterkirch Hittelkofer Straße 1-------
Bad Wurzach-Seibranz Kimpflerhof 2 -------
Baienfurt Untere Bergstrasse 7--7,0-17,07,05,0
Balzheim Hinterm Liess 19--8,0-12,03,08,0
Berg-Kleintobel Kleintobel--6,6-16,06,79,3
Biberach Amriswilstrasse--5,3-11,26,71,3
Biberach Strölinweg-------
Biberach Erlenweg---10,0 k10,04,52,5
Biberach Neue Heimat 5-------
Biberach Mittelbergstraße 9-------
Biberach Auf dem Lindele-------
Biberach-Bergerhausen Löcherstr.10,0-7,00,19,57,01,5
Bierstetten Schloßbühl 6--6,50,013,07,01,3
Blaubeuren-Pappelau Sotzenhauserstr.7--9,0-7,08,02,0
Bonndorf Im Tännle 12-------
Bühlertal Wolfinstraße 16--1,04,06,0-13,0
Regen Nebelnässe
Dornstadt-Tomerdingen Maienweg 90,6-4,10,610,014,41,8
Dürnau Dorfäckerweg 5--8,0-12,57,01,5
Eberhardzell Lilienweg--7,6-13,06,01,3
Ebersbach-Roßwälden Appenwiesen-------
Ehingen Rosenstraße0,00,65,10,77,08,81,0
Regen
Ehingen Zanderstraße--4,4-8,57,21,7
Ehingen Schlaufenbühl0,30,06,10,38,810,52,1
Nieselregen
Ehingen Schillerstraße--3,90,35,87,81,8
Nieselregen Nebelnässe
Ehingen-Herbertshofen Tobelweg 9-------
Eislingen Albstraße 125--2,20,19,25,99,0
Regen
Erbach-Bach Hauptstraße 24-------
Erlenmoos Haldenweg 15--7,8-9,66,24,1
Füramoos Hungersberg 10,0-5,51,46,96,25,5
Gutenzell Kleinser Berg 1--6,5-10,015,0-
Gutenzell-Hürbel Bei der Sägmühle 1-------
Herbertingen Drosselweg--6,0-11,08,51,5
Nebel - Hochnebel-und Sonne war auch dabei! Temperaturen im unteren Pl [weiterlesen...]
Bodennebel
Herbertingen Hirschstrasse--6,0-10,57,5-
Hochdorf-Schweinhausen Lindenweg 2--7,9-13,06,71,5
Hohentengen-Bremen Bremer Halde 4--5,5-11,08,01,0
Holzheim-Ellerbach Kirchstraße 3-------
Horgenzell-Ringgenweiler Ringgenweiler 620-0,06,10,09,88,52,6
Hüttisheim Ulmer Weg 20,00,07,00,59,58,02,0
Regen
Illerkirchberg Mahdauweg 20--7,4-8,66,52,0
Illerrieden-Wangen Am Muckenberg 12-------
Immenstaad Stockwiesen 10-------
Inzigkofen Butzenweg 1-0,05,10,09,38,02,1
Regen
Isny Am Dreifingerbach 390,20,26,00,213,23,03,8
Regen
Kirchberg Rosenstr. 7--5,51,015,27,01,4
Regen
Kreuzthal-Steinberg-Alpe Im Kreuzbachthal 85--10,90,117,14,24,6
Nieselregen
Langenau Wasserstr. 54-1-------
Langenau Narzissenweg 1-------
Langenenslingen Schattenweiler Str. 180,00,03,90,29,58,61,8
Regen Bodennebel Nebelnässe
Leutkirch Unterer Auenweg 250,00,16,3-15,24,01,9
Leutkirch Nachtigallenweg 28--7,00,516,04,01,5
Leutkirch-Adrazhofen Bergstraße 20--6,00,318,53,83,0
Bodennebel Nebelnässe
Luzern Schönbühlring-------
Merklingen Millergasse 9-------
Mietingen Seerosenweg 10-------
Mietingen-Walpertshofen Bussenweg 31-------
Mittelbiberach-Reute Rindenmooser Straße 2--6,00,911,37,21,9
Nieselregen
Moosburg Käserweg 5--7,00,09,98,86,0
Nach Nebelauflösung sonnig. Etwas kühler als zuletzt, trocken.
Nebelnässe
Münsingen-Bremelau Teichackerhof 1-------
Münsingen-Rietheim In der Lise 20--5,00,27,69,21,4
Regen
Neresheim Alfred-Delp-Straße 80,2-5,0-10,87,93,7
Bodennebel
Oberdischingen Normannenstraße 7--7,30,58,88,41,8
Regen
Ochsenhausen Ehrensberger Weg 5--7,80,712,56,41,5
Regen
Öpfingen Hauptstraße 99--6,10,89,112,02,0
Nieselregen Bodennebel Nebelnässe
Ostrach Uhlandweg-0,55,0-12,56,51,0
Ostrach Schillerstraße 19-------
Pfaffenhofen Lerchenweg 13-------
Pfaffenhofen-Kadeltshofen Mühlbachstraße 4--7,0----
Pfullendorf Am Schweizersbild ----18,83,15,8
Rangendingen Donaustraße 19--4,0-10,011,0-
Ravensburg Bleicherstraße--6,8-17,69,22,0
Ravensburg-Schmalegg St.-Magdalena-Ring 42-1,05,61,016,09,04,0
Ravensburg-Wernsreute Wernsreute 25-------
Ravensburg-Weststadt Karl-Erb-Ring 142--7,0-17,87,83,1
Regensburg Orleansstraße 3-------
Rheinfelden-Herten Eggbergstr. 10a-------
Riedhausen Blütenweg 130,4-5,2-17,43,69,0
Temp. + 1,0 °C / + 4,3 °C, Windböen aus N bis 19,3 km/h
Riedlingen Berliner Str. 41-------
Riedlingen-Neufra Panoramaweg--8,0----
Riedlingen-Neufra Riedlinger Strasse-------
Ringschnait Gustav-Reich-Strasse 20-------
Schelklingen-Gundershofen Schwarzer-Straße 14-1,55,01,05,515,00,5
Temp. zw. +0,6°C und +5,2°C. Sonne und Wolken. Abends Eintrübung un [weiterlesen...]
Schemmerberg Drosselweg 9--6,51,510,09,02,0
Schlier-Hintermoos Bergweg-------
Schwörstadt Schulstrasse 19-------
Seekirch Haldenberg 7-------
Sigmaringendorf Weingartenstraße 7-0,14,90,29,810,02,8
Regen
Tuttlingen Möhringerstraße 11--0,7--4,24,2
Ulm Eberhardtstraße 75-------
Ulm-Eggingen Dorfstraße 36-------
Ummendorf Tulpenweg--8,00,112,57,41,9
Nieselregen
Uttenweiler-Ahlen Seekircher Straße 8----10,59,82,1
Vöhringen (Schwarzwald) Drosselweg 3---6,08,017,05,0
Regen
Wald-Hohenzollern Steckeler Höfe-------
Waldburg Kastanienweg11--6,5-16,5-2,5
Wangen-Atzenberg Keplerweg 3-------
Wangen-Bergerhöhe Berg 2--6,5-18,88,03,0
Warthausen An der Schloßhalde --5,00,57,0--
Regen
Warthausen Schwabenwiesen -0,84,9-8,67,72,8
Warthausen-Barabein Barabein 20-------
Warthausen-Oberhöfen Panoramaweg -------
Weingarten Laurastraße0,00,07,00,517,07,24,0
+ 2,4 ° C um 5.00 Uhr, nasse Strassen
Bodennebel Nebelnässe
Weingarten Hoyerstraße-------
Weingarten Marienstraße0,00,57,00,217,59,02,5
Nebelnässe
Wolfegg-Veesers Veesers 1-------
Wolpertswende Aulendorfer Str. 17-0,45,4-13,06,31,8

Stillgelegte Niederschlagsstationen    -    derzeit 51 Stationen

StationLetzte Meldung29.12.30.12.31.12.01.01.02.01.03.01.04.01.Bemerkung 01.01.
Allmannsweiler Eggatsweilerstr.2802.09.2014-------
Aulendorf-Rugetsweiler Erikaweg 325.07.2013-------
Aulendorf-Zollenreute Imterstraße 1209.02.2019-------
Bad Bellingen Rheinstraße 7613.11.2019-------
Bad Saulgau Willi-Burth-Straße19.09.2011-------
Bad Saulgau Eichendorffweg28.03.2013-------
Bad Saulgau Seewattenstraße 12815.01.2014-------
Bad Saulgau-Lampertsweiler Valentinstr. 2618.02.2015-------
Bad Schussenried-Steinhausen Drosselgasse 4/126.09.2012-------
Bad Waldsee-Michelwinnanden Michelberg 531.12.2014-------
Bad Waldsee-Osterhofen Hochwaldgasse 406.03.2015-------
Bad Waldsee-Steinach Hofraingasse 1510.11.2013-------
Bad Wurzach-Dietmanns Postweg 519.01.20190,00,08,51,015,07,01,5
Nieselregen Nebelnässe
Bad Wurzach-Haidgau Wengener Straße 507.10.2012-------
Bad Wurzach-Ziegelbach Ziegelbach-Greut 507.11.2014-------
Bergatreute Bolanden 113.02.2012-------
Betzenweiler Offinger Straße 505.01.2017----10,215,1-
Burgrieden Am Nonnenberg 328.10.2013-------
Burgrieden-Rot Schmiedgasse 518.09.2013-------
Dettingen a. d. Iller Schleifweg 431.10.2019-------
Eberhardzell Schillerstraße05.07.2010-------
Ehingen Am Elzengraben17.06.2016-------
Gammertingen Schillerstraße 2216.01.2016--2,52,07,88,50,5
Griesingen Blumenstraße 906.10.2015-------
Günzburg Erlenbadweg 34 1/231.12.2010-------
Hoßkirch Kirchstraße 805.01.2018-0,44,00,813,16,01,0
Regen
Ingoldingen-Grodt Ingoldinger Weg 1919.11.2016-------
Kisslegg Kirchmoosstraße02.05.2011-------
Krauchenwies-Hausen Rosenrain 123.11.2013-------
Kressbronn Irisstraße 410.03.2010-------
Leutkirch-Ottmannshofen Spitalriedstraße 527.07.2012-------
Leutkirch-Rotis Rotis 5/208.05.2016---6,10,4-4,5
gegen 9.45 Uhr unter durchgehend grau bewölktem Himmel bei plus 2,5 G [weiterlesen...]
Leutkirch-Wuchzenhofen Untere Kirchstraße 18/119.09.2016--7,3-18,93,03,0
Mietingen Hangweg 1530.12.2017----15,07,01,0
Mössingen-Bästenhardt Weissdornweg 721.07.2014-------
Ostrach Heiligenberger Straße19.08.2013-------
Pfullendorf Ringstraße 18.03.2012-------
Ravensburg Olgastraße30.10.2016--6,1-15,18,12,1
Seltmans Amselweg 2209.04.2013-------
Stuttgart-Bad Cannstatt Beuthener Str. 6703.02.2013-------
Stuttgart-Möhringen Glashütter Weg 1023.04.2017--1,00,51,04,05,0
Bewölkung mit Nebel+ leichte Sonne, +2,5°C, 96%->+ 5°C, 1026hPa. [weiterlesen...]
Bodennebel Nebelnässe
Stuttgart-Rohr Hirschsprung 307.11.2012-------
Talheim Im Schecken 2121.08.2016--0,00,78,50,06,4
Nachts wolkiger bis bedeckter Himmel, Regenschauer, Regen und Nebel be [weiterlesen...]
Regen Bodennebel Nebelnässe
Tannheim Eggmannstr. 42 22.10.2017--6,6-11,71,20,9
Tmin +2,5°C__Tmax +6,5°C__24 Std.
Tettnang-Ramsbach Jahnstr. 24/126.03.2011-------
Tuttlingen-Möhringen Belchenstraße01.01.2015-------
Ummendorf Bergstraße23.10.2017--6,0-9,06,5-
Ummendorf Friedrich-Schiller-Str.19.01.2020-------
Vogt Mühlwies 1822.05.2015-------
Weingarten Bischof-Sproll-Straße30.06.2011-------
Wilhelmsdorf Riedhauser Straße 28.10.2012-------
Wilhelmsdorf Seefeld20.08.2013-------
Wurmlingen An der Steig 3014.10.2016-------
Die Niederschlagswerte des gewählten Tages lassen sich durch Klicken auf das Datum sortieren.
Die Angaben sind in l/m².

Wetterbeobachtungen Legende:

  • Regen
  • Nieselregen
  • Schneeregen
  • Schnee
  • Graupel
  • Eiskörner
  • Hagel
  • Bodennebel
  • Gewitter
  • Nebelnässe
  • Schneegriesel

Grafische Darstellung der Tagesniederschläge vom 01.01.2016

< 31.12.201502.01.2016 >Monats- und Jahresniederschlag


 
wetterstationen
wetterstationen
- derzeit 88 Stationen
niederschlagsdatenbank
wetterstationen
- kartographische Darstellung
niederschlagsdatenbank
niederschlagsstationen
- derzeit 127 Stationen
niederschlagsdatenbank
niederschlagsstationen
- kartographische Darstellung
 
 
Fr. 8.30 Uhr - Sa. 8.30 Uhr (MESZ)
1.Füramoos
Hungersberg 1
11,0 l/m²
 
  treffpunkt & service
--- Anzeigen --------------------------------
zugriffe:
insgesamt: 49.809.770
aktueller monat: 333.588
heute: 7
momentan online: 4
 
 
monatshöchstwert: 703.589
vorheriger monat: 450.467
gestern: 8.967
tageshöchstwert: 60.571
 
wetterwarte süd
 
konradstraße 3
info@wetterwarte-sued.com
roland roth
 
88427 bad schussenried